Regional Weather Roundup
Issued by NWS Bismarck, ND

Home | Current Version | Previous Version | Text Only | Print | Product List | Glossary On
Versions: 1 2 3 4 5 6 7 8 9 10 11 12 13 14 15 16 17 18 19 20 21 22 23 24 25 26 27 28 29 30 31 32 33 34 35 36 37 38 39 40 41 42 43 44 45 46 47 48 49 50
000
ASUS43 KBIS 240120
RWRBIS

NWR BROADCAST TEXT
NATIONAL WEATHER SERVICE BISMARCK ND
800 PM CDT WED APR 23 2014

NOTE: "FAIR" INDICATES FEW OR NO CLOUDS BELOW 12,000 FEET WITH NO
SIGNIFICANT WEATHER AND/OR OBSTRUCTIONS TO VISIBILITY.


CITY           SKY/WX    TMP DP  RH WIND       PRES   REMARKS
WILLISTON      CLOUDY    55  40  56 CALM      29.58R
MINOT          LGT RAIN  46  44  93 SW5       29.61R
MINOT AFB      CLOUDY    45  43  93 SE8       29.61R
BISMARCK       CLOUDY    51  40  65 NW12      29.66R
DICKINSON      MOCLDY    55  26  32 W20       29.62R
GARRISON         N/A     46  42  86 NW13      29.62R
HETTINGER ARPT PTCLDY    52  31  44 W15G22    29.68R
JAMESTOWN      CLOUDY    41  38  89 SE21G33   29.70R
CARRINGTON     CLOUDY    39  39 100 SE26G36   29.70R
CROSBY         CLOUDY    45  45 100 SW6       29.58R
HARVEY         CLOUDY    41  41 100 SE17G26   29.67R
HAZEN          FAIR      45  39  81 NW3       29.65S
LINTON         CLOUDY    50  43  76 NW15G28   29.66R
MANDAN         CLOUDY    48  39  71 NW14      29.66R
OAKES          CLOUDY    41  41 100 E14G20    29.71S
RUGBY          CLOUDY    39  39 100 SE24      29.66F FOG
STANLEY        CLOUDY    45  45 100 W10       29.60S
TIOGA          CLOUDY    46  46 100 W6        29.62R
WATFORD CITY   MOCLDY    54  36  50 CALM      29.59R
$$

CITY           SKY/WX    TMP DP  RH WIND       PRES   REMARKS
GRAND FORKS    RAIN      41  38  89 SE24      29.83F FOG
GRAND FORKS AF LGT RAIN  41  39  93 SE20G32   29.82F FOG
DEVILS LAKE    CLOUDY    37  34  87 SE21G29   29.73R
FARGO          LGT RAIN  41  37  86 SE22      29.79F
CANDO          MIX PCPN  39  37  93 SE25G31   29.73R
CAVALIER       MIX PCPN  41  39  93 SE15G23   29.86R
GRAFTON        MIX PCPN  41  41 100 SE20G31   29.85R
GWINNER        CLOUDY    41  41 100 SE24G30   29.73S
LANGDON        MIX PCPN  37  36  93 SE28G35   29.77F
ROLLA          MIX PCPN  37  37 100 SE24G33   29.71F
WALHALLA       LGT RAIN  41  41 100 SE22G28   29.84R
$$

CITY           SKY/WX    TMP DP  RH WIND       PRES   REMARKS
ABERDEEN       MOCLDY    48  41  76 E17G23    29.65R
MOBRIDGE       CLOUDY    56  40  55 NW17      29.62R
BUFFALO          N/A     52  29  41 W26       29.64S
RAPID CITY     MOCLDY    54  34  46 N24G31    29.69R
GLASGOW        MOSUNNY   58  20  22 W21G37    29.56R
SIDNEY         PTCLDY    55  25  30 W12       29.63R
WOLF POINT     MOCLDY    61  18  18 W24       29.58R
GLENDIVE       MOCLDY    55  23  28 W12       29.66R
MILES CITY     CLOUDY    56  19  23 W14       29.68R
BAKER          PTCLDY    53  30  41 W18       29.68S
$$

CITY           SKY/WX    TMP DP  RH WIND       PRES   REMARKS
BILLINGS       MOSUNNY   51  16  24 W26G33    29.76R
GREAT FALLS    MOSUNNY   43  25  49 SW24G36   29.72R
REGINA         LGT RAIN  43  43 100 SW6       29.51S
ESTEVAN        LGT RAIN  45  43  93 W13       29.56R
$$




USA.gov is the U.S. government's official web portal to all federal, state and local government web resources and services.